This is the latest recevied weather packets stored in our database for station/object K8DJB-1. If no packets are shown the sender has not sent any weather packets the latest 10 day(s).
| Time | Temp. | Humidity | Pressure | Rain* | Wind** | Luminosity | Snow |
|---|---|---|---|---|---|---|---|
| 1777921020 | 23.89° C | 27% | 999.2 hPa | 0 mm | - | - | - |
| 1777920720 | 23.89° C | 26% | 999 hPa | 0 mm | - | - | - |
| 1777920420 | 23.89° C | 29% | 999 hPa | 0 mm | - | - | - |
| 1777920120 | 23.89° C | 27% | 999 hPa | 0 mm | - | - | - |
| 1777919820 | 23.89° C | 27% | 999 hPa | 0 mm | - | - | - |
| 1777919520 | 23.89° C | 27% | 999.1 hPa | 0 mm | - | - | - |
| 1777919135 | 23.89° C | 28% | 999.1 hPa | 0 mm | - | - | - |
| 1777918814 | 23.89° C | 29% | 999.2 hPa | 0 mm | - | - | - |
| 1777918517 | 23.89° C | 26% | 999.3 hPa | 0 mm | - | - | - |
| 1777917914 | 23.33° C | 26% | 999.4 hPa | 0 mm | - | - | - |
| 1777917614 | 23.33° C | 25% | 999.4 hPa | 0 mm | - | - | - |
| 1777917314 | 23.33° C | 25% | 999.3 hPa | 0 mm | - | - | - |
| 1777917014 | 23.33° C | 25% | 999.5 hPa | 0 mm | - | - | - |
| 1777916714 | 23.33° C | 27% | 999.5 hPa | 0 mm | - | - | - |
| 1777916369 | 23.33° C | 25% | 999.6 hPa | 0 mm | - | - | - |
| 1777915957 | 23.33° C | 25% | 999.7 hPa | 0 mm | - | - | - |
| 1777915657 | 23.33° C | 26% | 999.9 hPa | 0 mm | - | - | - |
| 1777915357 | 23.33° C | 27% | 999.9 hPa | 0 mm | - | - | - |
| 1777915057 | 23.33° C | 26% | 1000 hPa | 0 mm | - | - | - |
| 1777914757 | 23.33° C | 26% | 1000 hPa | 0 mm | - | - | - |
| 1777914456 | 23.33° C | 29% | 1000.1 hPa | 0 mm | - | - | - |
| 1777914157 | 23.33° C | 26% | 1000.1 hPa | 0 mm | - | - | - |
| 1777913857 | 22.78° C | 25% | 1000.1 hPa | 0 mm | - | - | - |
| 1777913557 | 22.78° C | 26% | 1000.3 hPa | 0 mm | - | - | - |
| 1777913257 | 22.78° C | 28% | 1000.3 hPa | 0 mm | - | - | - |
* Rain latest hour (hover to see other rain measurements)
** Current wind speed in m/s (hover to see current wind gust speed)